Location: Castifao
(42.5040°N, 9.1124°E)
Time: 02:19:06
(UTC+00:00)

Cosmos 1939 Rocket - Pass Details

Date: 23 January 2020
Orbit: 534 x 583 km, 97.4° (Epoch: 19 February)

Event Time Altitude Azimuth Distance (km) Brightness Sun altitude
Rises 18:25:25 0° 179° (S) 2,681 6.4 -22.1°
Reaches altitude 10° 18:27:33 10° 184° (S) 1,801 5.6 -22.4°
Maximum altitude 18:31:20 50° 261° (W) 705 3.7 -23.1°
Drops below altitude 10° 18:35:12 10° 337° (NNW) 1,841 5.7 -23.9°
Sets 18:37:25 0° 343° (NNW) 2,749 6.5 -24.3°
